Wind_Speed
15 17 19 22 21 22 18 15 21 18 20 27 30 26 22 18 16 16 15 12 10 7 8 5 3 3 2 3 2 2 4 3 3 1 5 9 12 17 5 4 2 2 2 4
11 14 19 19 24 23 16 16 24 21 20 26 25 25 23 21 19 14 10 8 7 8 7 4 4 4 3 3 2 4 5 4 6 3 1 5 9 19 7 3 3 0 1 2
10 9 15 14 18 21 17 23 20 18 20 21 22 22 19 17 11 10 11 9 8 6 5 4 5 6 5 5 5 3 2 4 4 2 3 9 14 18 11 3 1 3 5 11
6 3 7 16 18 16 19 16 12 10 13 18 18 18 15 13 12 12 9 9 11 10 6 9 8 7 6 5 4 4 3 2 2 2 4 7 10 13 14 6 5 3 10 9
9 1 2 8 10 9 9 15 16 15 17 16 15 15 12 10 10 9 10 10 8 4 2 6 6 4 4 4 5 4 4 3 4 3 3 6 7 6 5 8 9 7 7 5
5 5 0 3 7 6 9 12 12 12 15 14 11 10 9 8 7 8 8 7 8 6 6 5 3 2 2 4 5 4 4 4 4 3 6 10 7 3 1 2 3 3 1 2
5 4 3 1 1 5 6 8 11 11 10 7 8 9 6 3 4 6 5 5 6 4 2 1 2 3 3 4 5 4 4 4 4 5 8 2 3 3 3 4 3 2 2 3
7 5 4 5 1 1 5 7 6 5 6 7 5 4 5 5 4 4 5 4 2 2 4 6 6 6 7 6 7 5 5 5 4 3 5 12 10 9 7 6 7 8 7 6
7 8 7 6 7 4 3 2 3 4 4 1 1 2 1 1 2 2 3 3 3 4 6 6 4 3 5 4 5 7 7 8 7 4 3 4 3 6 7 9 14 7 7 7
5 5 8 9 9 8 7 6 5 5 5 3 3 2 2 2 3 3 3 4 5 7 7 7 4 4 6 5 5 6 8 9 12 12 7 8 10 9 8 5 3 4 6 8
4 5 5 7 10 13 11 10 9 9 10 8 9 8 7 6 6 6 7 8 7 8 5 4 4 5 5 8 9 11 7 5 4 5 7 6 5 6 7 7 8 9 9 9
5 4 6 7 9 12 15 13 12 13 13 13 13 15 14 14 14 13 11 9 12 6 7 7 7 11 13 12 8 10 7 7 7 7 7 10 11 11 13 13 14 13 13 12
11 7 5 5 7 8 12 15 14 13 15 17 18 17 18 19 19 19 18 17 16 14 13 13 10 10 14 13 15 17 15 14 19 20 9 9 11 13 15 15 15 14 15 16
13 14 10 9 8 7 9 12 14 15 16 18 18 18 18 18 19 21 21 20 20 17 17 17 19 19 18 22 26 34 31 32 32 31 24 22 18 16 16 16 16 16 16 17
17 16 14 14 12 11 10 11 12 12 13 16 19 22 22 22 21 20 21 20 19 20 21 23 23 26 27 31 33 29 11 11 15 18 15 17 19 18 17 16 15 16 18 19
21 20 19 16 15 15 14 14 14 13 14 16 18 13 18 20 23 20 18 20 21 23 25 26 29 26 24 21 32 32 21 19 18 22 20 16 14 13 14 15 17 18 19 20
18 24 22 20 18 17 18 17 13 13 13 13 11 13 7 8 10 11 16 19 22 23 26 29 29 28 28 38 40 29 23 21 21 22 23 22 18 18 17 17 17 18 19 20
16 21 25 25 22 22 22 21 20 18 17 17 9 12 13 10 12 13 12 14 16 20 22 27 28 30 29 23 9 9 10 11 13 15 16 18 18 16 15 15 17 18 19 19
19 18 22 26 26 25 24 24 23 23 21 14 17 16 13 9 9 10 11 13 14 17 19 19 16 24 20 18 20 21 22 23 20 16 12 10 11 11 12 14 16 17 18 19
20 19 21 23 25 25 23 22 23 26 28 32 34 30 26 21 19 16 10 10 9 9 11 12 15 20 7 8 12 16 17 17 19 17 14 13 10 11 13 15 15 16 18 19
23 22 22 21 18 15 15 14 14 14 18 26 29 27 30 28 24 21 10 7 7 6 7 8 8 12 10 12 16 19 19 19 18 20 22 15 14 15 15 14 15 17 18 18
21 24 21 19 18 12 12 12 14 17 15 18 15 15 16 15 15 12 9 10 7 8 10 7 7 11 13 15 17 19 17 15 12 11 16 18 17 15 14 15 17 17 17 18
25 22 19 10 14 20 14 16 16 14 15 16 13 13 14 12 10 9 8 7 8 8 8 8 12 13 11 12 14 16 15 10 7 5 6 8 11 13 16 17 17 17 17 18
28 23 19 15 13 14 29 26 17 20 13 10 12 15 13 12 9 9 6 9 8 7 8 11 12 11 9 9 14 16 12 9 9 12 12 12 14 16 17 18 18 18 18 20
32 20 15 23 25 24 16 19 21 18 18 14 14 14 13 12 10 7 9 7 9 10 9 7 10 13 13 14 16 13 12 12 14 15 16 17 18 19 19 19 18 17 19 21
36 31 28 23 18 26 28 21 18 19 19 19 19 13 8 13 9 12 13 8 11 5 8 10 13 16 17 17 17 15 16 20 20 21 20 20 19 20 20 20 19 18 19 23
45 54 49 34 26 19 18 22 22 20 22 24 15 10 12 9 10 14 17 24 15 12 12 13 14 19 21 22 25 27 27 23 21 22 22 21 21 20 20 21 21 19 21 23
Wind_Direction
44 60 68 74 74 76 81 75 77 78 105 108 94 95 109 108 102 103 103 109 118 117 117 121 103 170 177 126 80 48 33 327 293 70 350 1 17 5 299 245 248 139 136 7
51 80 65 74 83 75 79 94 94 95 100 99 96 95 94 102 110 108 98 110 113 122 109 90 96 106 109 113 71 31 7 347 316 310 338 6 3 3 356 215 243 301 137 145
57 89 75 80 73 89 99 106 105 99 89 99 104 104 100 102 101 97 110 109 110 121 115 106 123 105 81 89 78 47 32 23 47 118 17 350 353 14 26 62 55 93 103 137
40 80 85 83 80 87 110 105 104 96 95 104 106 109 109 111 118 123 117 114 123 124 114 114 115 101 81 56 34 20 19 352 11 13 17 12 1 11 29 56 66 75 127 121
37 69 155 95 86 85 108 112 107 104 107 110 109 110 113 111 117 121 115 112 112 92 121 116 121 94 70 47 18 349 339 327 330 309 302 330 347 351 7 63 87 100 116 136
25 32 52 105 101 86 113 111 103 111 113 109 104 97 98 102 108 121 126 115 111 105 107 119 124 100 58 13 360 353 350 323 313 292 315 312 293 306 25 81 101 107 136 260
1 30 322 315 76 121 124 107 109 112 107 93 106 108 99 96 130 145 146 151 138 133 100 356 300 292 299 312 324 338 336 328 324 304 325 355 278 278 292 303 297 291 264 216
313 293 302 301 250 148 153 141 120 101 107 111 113 113 110 123 147 163 170 184 212 249 285 308 301 286 282 278 290 296 308 321 314 301 287 288 262 250 258 274 281 269 273 262
340 294 270 266 276 219 195 189 164 140 128 115 109 111 76 53 153 182 195 236 271 295 306 310 298 306 303 293 284 262 277 275 267 287 281 244 268 244 262 291 296 278 260 263
2 301 276 273 254 249 242 232 251 246 222 205 208 212 257 238 284 269 263 280 295 300 305 309 301 287 294 296 289 285 280 279 256 252 253 270 257 244 263 248 298 299 286 284
340 310 264 250 258 251 246 250 251 254 260 278 252 246 249 256 280 293 295 299 302 304 300 297 304 295 294 289 287 288 282 278 259 231 235 282 254 242 241 269 278 295 289 278
267 298 295 268 253 256 258 253 261 267 261 270 274 266 268 275 283 286 286 282 295 294 303 302 297 287 287 284 285 286 270 248 268 256 262 286 285 277 281 281 282 289 293 291
263 252 259 271 269 258 261 265 262 266 271 280 276 274 275 274 278 284 286 289 294 287 294 298 298 289 287 288 291 284 287 282 273 283 270 287 282 283 283 280 282 285 290 291
245 259 251 257 250 255 261 263 261 262 269 271 277 282 284 287 284 281 278 278 280 279 283 285 285 287 289 287 289 288 286 284 280 279 274 273 273 278 274 276 276 279 281 286
241 251 258 258 264 261 260 268 272 268 261 271 280 284 285 280 285 279 271 272 278 280 281 282 286 289 293 294 289 290 297 299 283 291 297 269 265 268 275 279 279 280 286 290
246 243 251 259 258 266 269 269 267 272 271 279 299 288 283 278 277 272 268 263 265 268 274 280 280 286 289 283 284 305 318 302 286 278 277 278 272 267 270 273 277 283 289 293
256 249 246 246 258 263 261 262 270 271 279 285 300 292 269 256 290 271 265 266 266 269 274 277 278 284 285 279 282 315 293 276 272 275 266 257 262 275 276 280 283 287 291 293
266 250 249 251 249 258 265 267 261 264 267 275 264 262 272 278 278 276 276 278 279 281 282 284 286 285 280 277 310 323 306 296 290 284 271 250 251 261 270 278 284 289 293 295
262 263 251 248 251 254 260 265 263 257 253 256 249 253 281 271 269 272 287 289 276 275 270 281 286 279 271 297 296 296 288 281 280 284 277 245 241 253 269 280 285 287 291 296
255 257 260 258 253 253 256 261 259 257 255 251 256 261 254 263 271 277 296 281 259 268 272 281 272 289 283 292 299 310 308 291 275 256 258 250 253 276 288 289 287 288 294 299
256 255 255 258 258 256 248 241 231 233 237 252 258 255 254 251 256 263 261 259 258 250 252 253 260 284 273 284 302 305 308 299 286 256 239 246 260 285 286 284 288 294 299 303
256 254 253 249 247 244 225 225 220 227 229 232 236 240 237 232 232 236 239 244 246 246 238 246 244 255 269 298 312 320 305 301 293 269 244 247 267 282 288 292 294 295 299 304
239 240 238 243 225 222 221 224 210 207 220 226 227 219 217 212 216 219 235 231 242 257 239 243 245 249 279 316 334 338 326 303 300 301 275 265 274 284 288 288 290 294 298 305
222 225 225 224 226 217 225 231 245 228 230 226 218 206 195 204 207 223 235 234 239 236 238 246 258 253 275 311 330 333 320 297 296 303 294 287 290 292 290 288 287 291 303 312
212 209 223 231 226 241 250 236 230 226 231 222 209 209 204 198 203 209 220 225 227 226 239 266 260 256 272 301 318 316 304 294 295 296 292 288 291 292 289 286 286 296 307 314
213 220 221 224 228 237 242 241 230 224 219 213 213 214 223 207 207 202 207 224 223 264 287 276 278 271 275 295 297 298 308 310 296 284 282 282 287 288 285 284 287 295 301 314
226 234 230 221 230 241 237 239 237 228 222 218 216 223 219 216 214 208 219 245 271 279 285 276 270 272 280 287 295 298 304 302 289 284 277 275 280 285 284 281 282 288 302 314
Height
3050 3048 3044 3038 3037 3036 3038 3038 3036 3037 3036 3035 3032 3035 3039 3042 3046 3047 3048 3050 3052 3053 3054 3055 3056 3056 3056 3056 3056 3055 3054 3053 3051 3050 3048 3047 3045 3042 3039 3038 3037 3034 3033 3035
3055 3052 3052 3048 3042 3042 3043 3043 3042 3044 3043 3040 3041 3043 3044 3046 3049 3050 3052 3053 3055 3056 3056 3057 3057 3057 3057 3057 3056 3056 3056 3054 3050 3048 3050 3048 3044 3042 3037 3036 3035 3034 3034 3036
3060 3059 3055 3054 3052 3048 3052 3049 3049 3051 3049 3047 3048 3049 3051 3052 3054 3056 3056 3057 3057 3057 3058 3058 3059 3059 3058 3058 3057 3057 3056 3054 3053 3053 3052 3049 3045 3041 3037 3036 3036 3035 3035 3036
3066 3065 3062 3058 3058 3057 3057 3055 3055 3054 3055 3054 3054 3054 3056 3058 3058 3059 3059 3060 3059 3059 3060 3060 3060 3060 3059 3059 3059 3058 3057 3056 3054 3053 3051 3049 3047 3044 3041 3039 3038 3037 3039 3039
3069 3069 3068 3064 3062 3062 3062 3061 3059 3060 3059 3060 3060 3060 3061 3062 3062 3061 3062 3062 3062 3062 3062 3062 3062 3061 3061 3060 3060 3058 3057 3056 3055 3053 3052 3050 3048 3046 3044 3042 3041 3041 3041 3041
3074 3073 3072 3070 3067 3068 3067 3065 3065 3064 3064 3064 3064 3064 3065 3065 3065 3065 3065 3065 3064 3064 3064 3063 3063 3062 3061 3060 3059 3057 3056 3055 3054 3052 3051 3049 3049 3046 3045 3044 3043 3043 3042 3042
3078 3074 3076 3075 3073 3070 3070 3069 3069 3069 3069 3067 3067 3067 3067 3067 3067 3067 3067 3067 3067 3067 3065 3065 3064 3062 3061 3061 3059 3058 3056 3055 3053 3051 3050 3051 3046 3045 3044 3043 3042 3042 3042 3041
3080 3078 3077 3078 3076 3076 3073 3071 3072 3072 3072 3071 3071 3070 3069 3069 3069 3069 3069 3069 3069 3067 3067 3066 3063 3062 3061 3059 3058 3057 3056 3055 3054 3052 3051 3047 3043 3043 3043 3042 3042 3041 3041 3040
3079 3078 3077 3078 3080 3078 3077 3076 3074 3073 3074 3075 3073 3072 3072 3071 3071 3070 3070 3070 3069 3068 3067 3066 3064 3061 3059 3058 3057 3055 3055 3054 3055 3053 3052 3047 3041 3041 3041 3041 3039 3038 3039 3039
3077 3077 3076 3076 3077 3079 3078 3077 3077 3075 3074 3072 3073 3073 3073 3073 3072 3071 3070 3070 3069 3068 3066 3065 3064 3062 3061 3058 3056 3054 3053 3052 3051 3051 3050 3043 3040 3040 3040 3042 3043 3037 3037 3037
3075 3074 3073 3073 3074 3075 3077 3076 3076 3076 3076 3075 3073 3073 3072 3071 3071 3071 3071 3071 3067 3066 3064 3064 3063 3061 3060 3057 3055 3053 3053 3051 3048 3047 3046 3042 3039 3039 3040 3039 3037 3036 3036 3035
3074 3072 3073 3071 3071 3071 3073 3074 3074 3074 3075 3074 3073 3072 3072 3072 3071 3070 3069 3069 3068 3067 3065 3064 3062 3060 3058 3055 3053 3050 3049 3048 3047 3046 3041 3038 3038 3037 3036 3035 3034 3033 3033 3032
3073 3071 3070 3069 3069 3069 3070 3071 3071 3071 3071 3071 3070 3069 3069 3068 3067 3068 3068 3067 3065 3064 3063 3062 3060 3059 3055 3052 3049 3046 3044 3043 3040 3039 3035 3034 3033 3033 3032 3031 3031 3030 3029 3028
3067 3070 3068 3067 3065 3066 3067 3067 3067 3066 3066 3065 3065 3064 3065 3064 3064 3063 3063 3062 3061 3060 3059 3058 3056 3055 3051 3047 3045 3040 3040 3037 3034 3030 3030 3030 3029 3028 3028 3027 3026 3025 3025 3024
3063 3065 3066 3066 3065 3064 3063 3064 3063 3063 3065 3061 3060 3059 3058 3058 3057 3056 3056 3056 3055 3054 3053 3052 3051 3048 3047 3040 3034 3028 3030 3028 3027 3024 3025 3024 3024 3024 3023 3023 3023 3022 3021 3019
3058 3058 3060 3062 3062 3062 3061 3061 3060 3059 3057 3056 3054 3052 3051 3050 3049 3049 3050 3049 3048 3048 3047 3045 3042 3043 3043 3034 3023 3021 3024 3023 3022 3020 3020 3019 3019 3019 3019 3019 3018 3017 3016 3014
3052 3053 3053 3054 3057 3057 3058 3059 3057 3056 3055 3054 3051 3047 3043 3044 3044 3043 3043 3043 3042 3043 3041 3037 3036 3036 3035 3023 3017 3019 3016 3015 3013 3012 3011 3013 3015 3015 3014 3014 3013 3012 3010 3009
3047 3046 3048 3049 3049 3051 3052 3052 3052 3051 3051 3050 3047 3044 3042 3041 3039 3039 3039 3038 3038 3036 3035 3030 3027 3026 3025 3016 3013 3012 3011 3011 3009 3007 3004 3004 3007 3008 3008 3007 3006 3005 3004 3003
3043 3043 3042 3041 3042 3043 3045 3045 3046 3045 3048 3044 3038 3039 3040 3036 3035 3035 3036 3034 3031 3029 3026 3024 3022 3015 3012 3012 3009 3007 3005 3004 3004 3004 3003 3002 3003 3003 3003 3002 3001 2999 2998 2997
3037 3038 3038 3035 3036 3037 3039 3039 3038 3035 3034 3032 3030 3030 3033 3035 3032 3031 3034 3029 3027 3023 3022 3018 3012 3005 3005 3004 3003 3001 2999 2997 2995 2996 2998 2998 2999 2999 2999 2998 2996 2995 2993 2991
3032 3031 3031 3032 3032 3033 3033 3032 3029 3025 3021 3018 3020 3021 3021 3025 3028 3028 3030 3026 3023 3019 3017 3015 3008 3002 3001 3000 2998 2996 2994 2992 2990 2989 2990 2993 2994 2994 2993 2992 2991 2990 2988 2987
3028 3028 3026 3027 3028 3029 3026 3020 3018 3012 3012 3008 3010 3014 3016 3017 3021 3023 3023 3022 3019 3014 3011 3008 2999 2998 2997 2996 2995 2992 2989 2988 2986 2985 2985 2987 2989 2989 2989 2989 2987 2986 2984 2981
3019 3022 3023 3022 3018 3013 3012 3006 3001 3001 3000 3000 3003 3007 3012 3013 3016 3018 3018 3015 3014 3011 3006 2999 2994 2993 2993 2993 2991 2988 2986 2985 2985 2985 2985 2984 2985 2985 2983 2982 2981 2980 2978 2975
3009 3012 3014 3012 3004 2995 2993 2997 2997 2997 2999 3001 3002 3001 3004 3007 3010 3012 3011 3010 3007 3002 2997 2990 2990 2990 2990 2989 2987 2986 2984 2983 2983 2982 2982 2982 2981 2980 2978 2976 2975 2973 2971 2969
2998 2999 2994 2990 2992 2992 2991 2990 2993 2995 2996 2998 3001 3002 3001 2999 3002 3004 3004 3002 2995 2989 2985 2986 2986 2986 2986 2985 2984 2983 2982 2981 2980 2978 2977 2976 2976 2974 2973 2971 2969 2967 2965 2963
2984 2979 2976 2979 2985 2986 2989 2989 2988 2989 2992 2994 2997 2996 2997 2993 2992 2990 2990 2989 2981 2981 2981 2981 2982 2982 2981 2981 2981 2980 2978 2977 2976 2973 2971 2970 2969 2968 2966 2965 2963 2962 2959 2956
2968 2960 2965 2973 2978 2980 2983 2985 2986 2984 2985 2988 2994 2991 2989 2986 2980 2977 2977 2975 2978 2977 2977 2976 2976 2976 2975 2975 2975 2973 2972 2970 2968 2967 2965 2963 2961 2960 2960 2959 2957 2955 2953 2951